EW0779 Weather Reports


Display with metric or nautical units.
time (UTC)temp
F
wind
direction
speed
MPH
gust
MPH
rain 1hr
in
rain 24hr
in
rain mn
in
humidity
%
barometer
mb
20210411220433 0 142 1.0 10.0 0.00 0.00 0.00 1006.7
20210411214617 0 146 1.0 4.0 0.00 0.00 0.00 1007.8
20210411213238 0 142 0.0 5.0 0.00 0.00 0.00 1008.6
20210411211525 0 146 0.0 5.0 0.00 0.00 0.00 1007.9
20210411210221 0 113 1.0 5.0 0.00 0.00 0.00 1007.9
20210411204621 0 112 3.0 13.0 0.00 0.00 0.00 1007.3
20210411203424 0 121 4.0 14.0 0.00 0.00 0.00 1006.4
20210411201536 0 117 4.0 16.0 0.00 0.00 0.00 1006.9
20210411200118 0 59 3.0 10.0 0.00 0.00 0.00 1007.8
20210411194555 0 90 4.0 9.0 0.00 0.00 0.00 1009.1
20210411193331 0 74 0.0 9.0 0.00 0.00 0.00 1009.2
20210411191602 0 23 0.0 2.0 0.00 0.00 0.00 1010.9
20210411190220 0 350 1.0 9.0 0.00 0.00 0.00 1011.3
20210411184650 0 349 2.0 7.0 0.00 0.00 0.00 1010.9
20210411183547 0 351 0.0 5.0 0.00 0.00 0.00 1011.3
20210411181629 0 324 1.0 8.0 0.00 0.00 0.00 1010.9
20210411180149 0 235 1.0 4.0 0.00 0.00 0.00 1011.8
20210411173234 0 74 0.0 5.0 0.00 0.00 0.00 1008.7
20210411171622 0 20 0.0 2.0 0.00 0.00 0.00 1008.9
20210411170038 0 246 0.0 4.0 0.00 0.00 0.00 1009.7
20210411164538 0 288 2.0 12.0 0.00 0.00 0.00 1009.4
20210411163126 0 255 5.0 17.0 0.00 0.00 0.00 1011.0
20210411161707 0 36 4.0 23.0 0.00 0.00 0.00 1010.4
20210411160111 0 11 4.0 16.0 0.00 0.00 0.00 1010.5
20210411153040 0 261 2.0 10.0 0.00 0.00 0.00 1008.9
20210411151745 0 242 3.0 11.0 0.00 0.00 0.00 1009.1
20210411150138 0 252 0.0 5.0 0.00 0.00 0.00 1008.9
20210411144545 0 167 0.0 3.0 0.00 0.00 0.00 1008.2
20210411143055 0 178 0.0 5.0 0.00 0.00 0.00 1008.2
20210411140145 0 196 0.0 7.0 0.00 0.00 0.00 1008.2
20210411134649 0 210 1.0 7.0 0.00 0.00 0.00 1008.0
20210411133109 0 188 0.0 3.0 0.00 0.00 0.00 1007.9
20210411131622 0 220 0.0 6.0 0.00 0.00 0.00 1008.6
20210411130050 0 184 0.0 9.0 0.00 0.00 0.00 1008.4
20210411124757 0 140 0.0 8.0 0.00 0.00 0.00 1008.0
20210411123142 0 175 0.0 9.0 0.00 0.00 0.00 1007.5
20210411121609 0 143 1.0 7.0 0.00 0.00 0.00 1007.1
20210411120118 0 144 1.0 13.0 0.00 0.00 0.00 1007.3
20210411114519 0 0.0 0.0 0.00 0.00 0.00 1007.3
20210411113100 0 0.0 0.0 0.00 0.00 0.00 1007.2
20210411111618 0 0.0 0.0 0.00 0.00 0.00 1007.0
20210411110039 0 182 0.0 7.0 0.00 0.00 0.00 1007.1
20210411104616 0 140 0.0 7.0 0.00 0.00 0.00 1007.1
20210411103134 0 205 0.0 5.0 0.00 0.00 0.00 1007.3
20210411101715 0 132 1.0 9.0 0.00 0.00 0.00 1007.3
20210411100125 0 138 1.0 7.0 0.00 0.00 0.00 1007.5
20210411094540 0 218 0.0 11.0 0.00 0.00 0.00 1007.5
20210411093124 0 204 0.0 9.0 0.00 0.00 0.00 1007.9
20210411091635 0 143 0.0 6.0 0.00 0.00 0.00 1008.3
20210411090218 0 163 0.0 6.0 0.00 0.00 0.00 1008.4
20210411084600 0 180 0.0 9.0 0.00 0.00 0.00 1008.9
20210411083028 0 165 0.0 4.0 0.00 0.00 0.00 1008.9
20210411081512 0 155 0.0 4.0 0.00 0.00 0.00 1008.7
20210411080058 0 185 0.0 3.0 0.00 0.00 0.00 1008.6
20210411074553 0 169 0.0 3.0 0.00 0.00 0.00 1008.7
20210411073045 0 153 0.0 0.0 0.00 0.00 0.00 1008.8
20210411071524 0 153 0.0 3.0 0.00 0.00 0.00 1009.0
20210411070252 0 155 0.0 2.0 0.00 0.00 0.00 1009.0
20210411064834 0 157 0.0 6.0 0.00 0.00 0.00 1009.1
20210411061537 0 149 0.0 2.0 0.00 0.00 0.00 1009.3
20210411060128 0 146 0.0 4.0 0.00 0.00 0.00 1009.3
20210411054703 0 124 0.0 3.0 0.00 0.00 0.00 1009.0
20210411053056 0 111 0.0 5.0 0.00 0.00 0.00 1008.9
20210411051622 0 156 0.0 4.0 0.00 0.00 0.00 1008.6
20210411044621 0 139 0.0 1.0 0.00 0.00 0.00 1008.4
20210411041643 0 180 0.0 3.0 0.00 0.00 0.00 1008.4
20210411034650 0 161 0.0 5.0 0.00 0.00 0.00 1008.3
20210411031640 0 207 0.0 5.0 0.00 0.00 0.00 1008.2
20210411030159 0 225 0.0 5.0 0.00 0.00 0.00 1008.1
20210411024527 0 175 0.0 3.0 0.00 0.00 0.00 1008.2
20210411023140 0 211 0.0 4.0 0.00 0.00 0.00 1008.5
20210411021820 0 234 0.0 3.0 0.00 0.00 0.00 1008.6
20210411014537 0 150 0.0 7.0 0.00 0.00 0.00 1009.0
20210411013104 0 141 2.0 8.0 0.00 0.00 0.00 1008.7
20210411011643 0 139 0.0 4.0 0.00 0.00 0.00 1009.1
20210411004649 0 82 0.0 0.0 0.00 0.00 0.00 1009.4
20210411003117 0 59 0.0 4.0 0.00 0.00 0.00 1009.3
20210411001527 0 78 1.0 8.0 0.00 0.00 0.00 1010.1
20210411000130 0 74 0.0 3.0 0.00 0.00 0.00 1012.2
20210410234631 0 80 0.0 4.0 0.00 0.00 0.00 1011.7
20210410233131 0 82 0.0 5.0 0.00 0.00 0.00 1011.6
20210410231616 0 75 0.0 3.0 0.00 0.00 0.00 1011.9
20210410230048 0 9 0.0 4.0 0.00 0.00 0.00 1012.5
20210410224620 0 346 4.0 9.0 0.00 0.00 0.00 1012.9
20210410223051 0 344 2.0 9.0 0.00 0.00 0.00 1013.6
20210410221547 0 301 2.0 13.0 0.00 0.00 0.00 1013.5